• In Lithuania
  • List of Countries
  • For 7 days
  • Water Temperature
  • Satellite Maps
  • Weather Map
  • Weather Widgets
  • user-avatar
    Login

    Hourly Weather Zanzibar

    Today, 18 June, Monday

    Time Temperature Precipitation Wind Pressure Humidity
    00:00 +25°C° 0 mm 4 mps 762 mmHg 82%
    01:00 +23°C° 0 mm 4 mps 762 mmHg 84%
    02:00 +23°C° 0 mm 4 mps 762 mmHg 85%
    03:00 +23°C° 0 mm 4 mps 762 mmHg 87%
    04:00 +22°C° 0.1 mm 4 mps 762 mmHg 88%
    05:00 +22°C° 0.1 mm 4 mps 762 mmHg 90%
    06:00 +22°C° 0.1 mm 4 mps 762 mmHg 92%
    07:00 +23°C° 0.2 mm 4 mps 762 mmHg 87%
    08:00 +25°C° 0.2 mm 4 mps 762 mmHg 82%
    09:00 +27°C° 0 mm 4 mps 763 mmHg 76%
    10:00 +28°C° 0.1 mm 4 mps 763 mmHg 69%
    11:00 +30°C° 0.1 mm 4 mps 762 mmHg 61%
    12:00 +32°C° 0.1 mm 4 mps 762 mmHg 54%
    13:00 +33°C° 0 mm 4 mps 761 mmHg 52%
    14:00 +33°C° 0 mm 4 mps 761 mmHg 50%
    15:00 +33°C° 0 mm 3 mps 760 mmHg 51%
    16:00 +30°C° 0 mm 4 mps 760 mmHg 58%
    17:00 +29°C° 0 mm 4 mps 760 mmHg 65%
    18:00 +28°C° 0 mm 4 mps 760 mmHg 72%
    19:00 +27°C° 0 mm 4 mps 760 mmHg 75%
    20:00 +26°C° 0 mm 4 mps 761 mmHg 77%
    21:00 +26°C° 0 mm 5 mps 761 mmHg 79%
    22:00 +26°C° 0 mm 4 mps 761 mmHg 80%
    23:00 +25°C° 0 mm 4 mps 761 mmHg 81%

    Tomorrow, 19 June, Tuesday

    Time Temperature Precipitation Wind Pressure Humidity
    00:00 +25°C° 0 mm 4 mps 762 mmHg 82%
    01:00 +25°C° 0.1 mm 4 mps 761 mmHg 85%
    02:00 +23°C° 0.1 mm 4 mps 761 mmHg 88%
    03:00 +23°C° 0.1 mm 4 mps 761 mmHg 91%
    04:00 +22°C° 0.2 mm 4 mps 761 mmHg 91%
    05:00 +22°C° 0.2 mm 4 mps 761 mmHg 91%
    06:00 +21°C° 0.2 mm 4 mps 761 mmHg 91%
    07:00 +23°C° 0.1 mm 5 mps 762 mmHg 85%
    08:00 +25°C° 0.1 mm 5 mps 762 mmHg 79%
    09:00 +26°C° 0.1 mm 5 mps 762 mmHg 73%
    10:00 +28°C° 0 mm 5 mps 762 mmHg 67%
    11:00 +30°C° 0 mm 5 mps 762 mmHg 61%
    12:00 +32°C° 0 mm 5 mps 762 mmHg 54%
    13:00 +32°C° 0.1 mm 5 mps 762 mmHg 55%
    14:00 +32°C° 0.1 mm 5 mps 761 mmHg 56%
    15:00 +32°C° 0.1 mm 5 mps 761 mmHg 57%
    16:00 +30°C° 0.2 mm 5 mps 761 mmHg 62%
    17:00 +29°C° 0.2 mm 5 mps 761 mmHg 66%
    18:00 +28°C° 0.2 mm 6 mps 761 mmHg 71%
    19:00 +27°C° 0 mm 5 mps 761 mmHg 73%
    20:00 +26°C° 0 mm 5 mps 762 mmHg 76%
    21:00 +26°C° 0 mm 5 mps 762 mmHg 78%
    22:00 +25°C° 0.1 mm 5 mps 762 mmHg 81%
    23:00 +25°C° 0.1 mm 5 mps 762 mmHg 83%

    Day after tomorrow, 20 June, Wednesday

    Time Temperature Precipitation Wind Pressure Humidity
    00:00 +25°C° 0.1 mm 4 mps 763 mmHg 86%
    01:00 +23°C° 0.2 mm 4 mps 762 mmHg 88%
    02:00 +23°C° 0.2 mm 4 mps 762 mmHg 89%
    03:00 +22°C° 0.2 mm 4 mps 762 mmHg 91%
    04:00 +22°C° 0.1 mm 4 mps 762 mmHg 91%
    05:00 +22°C° 0.1 mm 4 mps 762 mmHg 92%
    06:00 +21°C° 0.1 mm 4 mps 762 mmHg 92%
    07:00 +23°C° 0 mm 4 mps 762 mmHg 87%
    08:00 +25°C° 0 mm 4 mps 763 mmHg 83%
    09:00 +26°C° 0 mm 5 mps 763 mmHg 78%
    10:00 +28°C° 0 mm 4 mps 763 mmHg 70%
    11:00 +30°C° 0 mm 4 mps 763 mmHg 62%
    12:00 +33°C° 0 mm 4 mps 763 mmHg 53%
    13:00 +33°C° 0 mm 4 mps 762 mmHg 53%
    14:00 +33°C° 0 mm 4 mps 762 mmHg 53%
    15:00 +33°C° 0 mm 4 mps 761 mmHg 52%
    16:00 +32°C° 0 mm 4 mps 761 mmHg 58%
    17:00 +30°C° 0 mm 5 mps 761 mmHg 65%
    18:00 +29°C° 0 mm 5 mps 761 mmHg 71%
    19:00 +28°C° 0 mm 5 mps 762 mmHg 73%
    20:00 +27°C° 0 mm 5 mps 762 mmHg 76%
    21:00 +27°C° 0 mm 5 mps 763 mmHg 79%
    22:00 +26°C° 0.1 mm 5 mps 763 mmHg 81%
    23:00 +26°C° 0.1 mm 5 mps 763 mmHg 83%

    21 June, Thursday

    Time Temperature Precipitation Wind Pressure Humidity
    00:00 +26°C° 0.1 mm 5 mps 763 mmHg 84%
    01:00 +26°C° 0.5 mm 5 mps 763 mmHg 86%
    02:00 +25°C° 0.5 mm 5 mps 762 mmHg 88%
    03:00 +25°C° 0.5 mm 5 mps 762 mmHg 89%
    04:00 +23°C° 0.5 mm 5 mps 762 mmHg 90%
    05:00 +23°C° 0.5 mm 5 mps 762 mmHg 90%
    06:00 +23°C° 0.5 mm 5 mps 762 mmHg 91%
    07:00 +25°C° 0.3 mm 5 mps 763 mmHg 86%
    08:00 +26°C° 0.3 mm 5 mps 764 mmHg 81%
    09:00 +27°C° 0.3 mm 5 mps 764 mmHg 76%
    10:00 +29°C° 0.6 mm 5 mps 764 mmHg 71%
    11:00 +30°C° 0.6 mm 5 mps 764 mmHg 66%
    12:00 +32°C° 0.6 mm 5 mps 764 mmHg 60%
    13:00 +33°C° 0.2 mm 5 mps 763 mmHg 58%
    14:00 +33°C° 0.2 mm 4 mps 762 mmHg 55%
    15:00 +34°C° 0.2 mm 4 mps 761 mmHg 52%
    16:00 +32°C° 0 mm 5 mps 761 mmHg 59%
    17:00 +30°C° 0 mm 5 mps 761 mmHg 66%
    18:00 +29°C° 0 mm 6 mps 761 mmHg 73%
    19:00 +28°C° 0 mm 6 mps 762 mmHg 75%
    20:00 +27°C° 0 mm 6 mps 762 mmHg 76%
    21:00 +27°C° 0 mm 6 mps 763 mmHg 78%
    22:00 +27°C° 0.5 mm 6 mps 763 mmHg 80%
    23:00 +26°C° 0.5 mm 6 mps 763 mmHg 82%

    22 June, Friday

    Time Temperature Precipitation Wind Pressure Humidity
    00:00 +26°C° 0.5 mm 5 mps 763 mmHg 84%
    01:00 +26°C° 1.1 mm 5 mps 763 mmHg 85%
    02:00 +25°C° 1.1 mm 5 mps 762 mmHg 86%
    03:00 +25°C° 1.1 mm 5 mps 762 mmHg 87%
    04:00 +25°C° 0.7 mm 5 mps 762 mmHg 88%
    05:00 +23°C° 0.7 mm 5 mps 762 mmHg 89%
    06:00 +23°C° 0.7 mm 5 mps 763 mmHg 90%
    07:00 +25°C° 0.8 mm 5 mps 763 mmHg 86%
    08:00 +26°C° 0.8 mm 5 mps 764 mmHg 81%
    09:00 +27°C° 0.8 mm 5 mps 764 mmHg 76%
    10:00 +29°C° 0.2 mm 5 mps 764 mmHg 68%
    11:00 +32°C° 0.2 mm 5 mps 764 mmHg 61%
    12:00 +33°C° 0.2 mm 4 mps 763 mmHg 53%
    13:00 +33°C° 0 mm 4 mps 762 mmHg 53%
    14:00 +33°C° 0 mm 4 mps 762 mmHg 53%
    15:00 +33°C° 0 mm 5 mps 761 mmHg 53%
    16:00 +32°C° 0.1 mm 5 mps 761 mmHg 60%
    17:00 +30°C° 0.1 mm 6 mps 761 mmHg 66%
    18:00 +29°C° 0.1 mm 6 mps 761 mmHg 72%
    19:00 +28°C° 0 mm 6 mps 761 mmHg 75%
    20:00 +27°C° 0 mm 6 mps 762 mmHg 78%
    21:00 +27°C° 0 mm 6 mps 763 mmHg 80%
    22:00 +26°C° 0.3 mm 6 mps 762 mmHg 83%
    23:00 +26°C° 0.3 mm 5 mps 762 mmHg 87%

    23 June, Saturday

    Time Temperature Precipitation Wind Pressure Humidity
    00:00 +26°C° 0.3 mm 5 mps 762 mmHg 90%
    01:00 +25°C° 1 mm 5 mps 762 mmHg 91%
    02:00 +25°C° 1 mm 4 mps 761 mmHg 93%
    03:00 +23°C° 1 mm 4 mps 761 mmHg 94%
    04:00 +23°C° 0.9 mm 4 mps 761 mmHg 94%
    05:00 +23°C° 0.9 mm 5 mps 762 mmHg 94%
    06:00 +23°C° 0.9 mm 5 mps 762 mmHg 94%
    07:00 +25°C° 0.4 mm 5 mps 763 mmHg 90%
    08:00 +26°C° 0.4 mm 5 mps 763 mmHg 86%
    09:00 +27°C° 0.4 mm 5 mps 764 mmHg 83%
    10:00 +28°C° 0.3 mm 5 mps 763 mmHg 76%
    11:00 +29°C° 0.3 mm 5 mps 763 mmHg 70%
    12:00 +32°C° 0.3 mm 5 mps 762 mmHg 64%
    13:00 +30°C° 0.6 mm 5 mps 762 mmHg 68%
    14:00 +29°C° 0.6 mm 6 mps 761 mmHg 72%
    15:00 +28°C° 0.6 mm 6 mps 760 mmHg 76%
    16:00 +28°C° 0.3 mm 6 mps 760 mmHg 78%
    17:00 +27°C° 0.3 mm 7 mps 761 mmHg 81%
    18:00 +27°C° 0.3 mm 7 mps 761 mmHg 83%
    19:00 +26°C° 0.2 mm 7 mps 761 mmHg 84%
    20:00 +26°C° 0.2 mm 6 mps 762 mmHg 85%
    21:00 +26°C° 0.2 mm 6 mps 762 mmHg 86%
    22:00 +26°C° 0.1 mm 6 mps 762 mmHg 86%
    23:00 +26°C° 0.1 mm 6 mps 762 mmHg 86%
    Show more